This is the latest recevied weather packets stored in our database for station/object TA3HRJ-12. If no packets are shown the sender has not sent any weather packets the latest 10 day(s).
| Time | Temp. | Humidity | Pressure | Rain* | Wind** | Luminosity | Snow |
|---|---|---|---|---|---|---|---|
| 1778220659 | 25.56° C | 24% | 1033.2 hPa | - | - | - | - |
| 1778219759 | 25° C | 25% | 1033.2 hPa | - | - | - | - |
| 1778218859 | 26.11° C | 24% | 1033 hPa | - | - | - | - |
| 1778217959 | 25.56° C | 25% | 1033.1 hPa | - | - | - | - |
| 1778217059 | 25° C | 24% | 1033 hPa | - | - | - | - |
| 1778216158 | 25° C | 24% | 1033 hPa | - | - | - | - |
| 1778215258 | 25° C | 25% | 1032.9 hPa | - | - | - | - |
| 1778214358 | 23.89° C | 26% | 1032.7 hPa | - | - | - | - |
| 1778213458 | 22.78° C | 28% | 1032.8 hPa | - | - | - | - |
| 1778212558 | 22.22° C | 27% | 1032.7 hPa | - | - | - | - |
| 1778211658 | 21.67° C | 28% | 1032.4 hPa | - | - | - | - |
| 1778210758 | 21.11° C | 29% | 1032.3 hPa | - | - | - | - |
| 1778209858 | 21.11° C | 30% | 1032.2 hPa | - | - | - | - |
| 1778208958 | 20° C | 31% | 1032.1 hPa | - | - | - | - |
| 1778208058 | 20° C | 31% | 1032 hPa | - | - | - | - |
| 1778207157 | 18.89° C | 32% | 1032 hPa | - | - | - | - |
| 1778206257 | 19.44° C | 31% | 1031.8 hPa | - | - | - | - |
| 1778205357 | 19.44° C | 32% | 1031.9 hPa | - | - | - | - |
| 1778204457 | 18.89° C | 33% | 1032 hPa | - | - | - | - |
| 1778203557 | 18.33° C | 33% | 1032 hPa | - | - | - | - |
| 1778202657 | 18.33° C | 34% | 1031.9 hPa | - | - | - | - |
| 1778201757 | 18.89° C | 32% | 1032.2 hPa | - | - | - | - |
| 1778200857 | 19.44° C | 32% | 1032.1 hPa | - | - | - | - |
| 1778199957 | 20° C | 31% | 1032.2 hPa | - | - | - | - |
| 1778199057 | 20° C | 31% | 1032.2 hPa | - | - | - | - |
* Rain since midnight (hover to see other rain measurements)
** Current wind speed in m/s (hover to see current wind gust speed)